Location: Domicella
(40.8833°N, 14.5833°E)
Time: 11:06:42
(UTC+00:00)

Cosmos 2278 - Pass Details

Date: 15 May 2026
Orbit: 837 x 852 km, 71.1° (Epoch: 5 June)

Event Time Altitude Azimuth Distance (km) Brightness Sun altitude
Rises 21:03:23 0° 330° (NNW) 3,427 8.3 -24.4°
Reaches altitude 10° 21:05:56 10° 325° (NW) 2,487 7.2 -24.7°
Maximum altitude 21:11:21 47° 253° (WSW) 1,121 4.3 -25.2°
Enters shadow 21:12:32 41° 220° (SW) 1,219 4.3 -25.3°
